When you browse on this site, cookies collect data to enhance your experience and personalize the content and advertising you see.
Visit our Privacy Policy to learn more. By continuing to use the site, you agree to this use of cookies and data.

Meteo pe oră la Ituni

Astăzi, 11 Iulie, Sâmbătă

Timp Temperatura Precipitaţii Vânt Presiune Umiditate
00:00 +24°C° 0 mm 0 m/s 753 mmHg 92%
01:00 +23°C° 0 mm 0 m/s 752 mmHg 94%
02:00 +23°C° 0 mm 0 m/s 752 mmHg 96%
03:00 +22°C° 0 mm 0 m/s 752 mmHg 96%
04:00 +22°C° 0 mm 0 m/s 752 mmHg 97%
05:00 +22°C° 0 mm 0 m/s 752 mmHg 97%
06:00 +24°C° 0 mm 0 m/s 752 mmHg 91%
07:00 +25°C° 0 mm 0 m/s 752 mmHg 86%
08:00 +27°C° 0 mm 0 m/s 753 mmHg 79%
09:00 +28°C° 0.2 mm 0 m/s 753 mmHg 71%
10:00 +32°C° 0.2 mm 1 m/s 753 mmHg 63%
11:00 +34°C° 0.2 mm 1 m/s 753 mmHg 55%
12:00 +34°C° 0.2 mm 1 m/s 752 mmHg 54%
13:00 +34°C° 0.2 mm 1 m/s 751 mmHg 54%
14:00 +34°C° 0.2 mm 1 m/s 750 mmHg 54%
15:00 +33°C° 0.9 mm 1 m/s 750 mmHg 64%
16:00 +31°C° 0.9 mm 1 m/s 750 mmHg 75%
17:00 +29°C° 0.9 mm 2 m/s 750 mmHg 85%
18:00 +28°C° 0.5 mm 1 m/s 750 mmHg 88%
19:00 +27°C° 0.5 mm 1 m/s 751 mmHg 91%
20:00 +26°C° 0.5 mm 1 m/s 751 mmHg 95%
21:00 +26°C° 0.1 mm 1 m/s 752 mmHg 95%
22:00 +25°C° 0.1 mm 1 m/s 752 mmHg 96%
23:00 +25°C° 0.1 mm 1 m/s 753 mmHg 97%

Mâine, 12 Iulie, Duminică

Timp Temperatura Precipitaţii Vânt Presiune Umiditate
00:00 +25°C° 0 mm 1 m/s 752 mmHg 97%
01:00 +25°C° 0 mm 1 m/s 752 mmHg 97%
02:00 +25°C° 0 mm 1 m/s 751 mmHg 98%
03:00 +25°C° 0 mm 1 m/s 751 mmHg 97%
04:00 +24°C° 0 mm 1 m/s 752 mmHg 97%
05:00 +24°C° 0 mm 1 m/s 752 mmHg 97%
06:00 +25°C° 0 mm 1 m/s 752 mmHg 93%
07:00 +26°C° 0 mm 1 m/s 753 mmHg 89%
08:00 +28°C° 0 mm 2 m/s 753 mmHg 85%
09:00 +29°C° 0 mm 2 m/s 753 mmHg 75%
10:00 +31°C° 0 mm 2 m/s 753 mmHg 65%
11:00 +34°C° 0 mm 2 m/s 753 mmHg 55%
12:00 +34°C° 0.2 mm 2 m/s 752 mmHg 55%
13:00 +35°C° 0.2 mm 3 m/s 752 mmHg 55%
14:00 +35°C° 0.2 mm 3 m/s 751 mmHg 55%
15:00 +32°C° 0.5 mm 2 m/s 751 mmHg 62%
16:00 +31°C° 0.5 mm 2 m/s 750 mmHg 70%
17:00 +30°C° 0.5 mm 2 m/s 750 mmHg 77%
18:00 +29°C° 0.3 mm 2 m/s 751 mmHg 82%
19:00 +27°C° 0.3 mm 1 m/s 752 mmHg 87%
20:00 +26°C° 0.3 mm 1 m/s 752 mmHg 92%
21:00 +26°C° 0.5 mm 1 m/s 753 mmHg 94%
22:00 +25°C° 0.5 mm 1 m/s 753 mmHg 96%
23:00 +25°C° 0.5 mm 1 m/s 753 mmHg 98%

Poimâine, 13 Iulie, Luni

Timp Temperatura Precipitaţii Vânt Presiune Umiditate
00:00 +23°C° 0.5 mm 0 m/s 753 mmHg 98%
01:00 +23°C° 0.5 mm 0 m/s 752 mmHg 98%
02:00 +23°C° 0.5 mm 0 m/s 752 mmHg 99%
03:00 +22°C° 0 mm 0 m/s 752 mmHg 99%
04:00 +22°C° 0 mm 0 m/s 752 mmHg 99%
05:00 +22°C° 0 mm 0 m/s 752 mmHg 99%
06:00 +23°C° 0 mm 0 m/s 753 mmHg 95%
07:00 +24°C° 0 mm 0 m/s 753 mmHg 92%
08:00 +26°C° 0 mm 0 m/s 754 mmHg 89%
09:00 +29°C° 0.1 mm 1 m/s 754 mmHg 80%
10:00 +31°C° 0.1 mm 1 m/s 754 mmHg 71%
11:00 +32°C° 0.1 mm 1 m/s 754 mmHg 61%
12:00 +33°C° 0.3 mm 1 m/s 753 mmHg 59%
13:00 +33°C° 0.3 mm 1 m/s 752 mmHg 56%
14:00 +34°C° 0.3 mm 1 m/s 752 mmHg 54%
15:00 +32°C° 0.2 mm 1 m/s 751 mmHg 63%
16:00 +31°C° 0.2 mm 1 m/s 751 mmHg 72%
17:00 +29°C° 0.2 mm 1 m/s 751 mmHg 81%
18:00 +28°C° 0.6 mm 1 m/s 752 mmHg 86%
19:00 +27°C° 0.6 mm 1 m/s 752 mmHg 91%
20:00 +25°C° 0.6 mm 1 m/s 753 mmHg 96%
21:00 +25°C° 0 mm 1 m/s 753 mmHg 96%
22:00 +25°C° 0 mm 1 m/s 753 mmHg 97%
23:00 +23°C° 0 mm 0 m/s 754 mmHg 98%

14 Iulie, Marţi

Timp Temperatura Precipitaţii Vânt Presiune Umiditate
00:00 +23°C° 0.3 mm 0 m/s 753 mmHg 98%
01:00 +22°C° 0.3 mm 0 m/s 753 mmHg 98%
02:00 +22°C° 0.3 mm 0 m/s 752 mmHg 99%
03:00 +22°C° 0 mm 0 m/s 752 mmHg 99%
04:00 +22°C° 0 mm 0 m/s 752 mmHg 99%
05:00 +22°C° 0 mm 0 m/s 752 mmHg 99%
06:00 +23°C° 0 mm 0 m/s 753 mmHg 96%
07:00 +24°C° 0 mm 0 m/s 753 mmHg 93%
08:00 +25°C° 0 mm 0 m/s 754 mmHg 91%
09:00 +27°C° 0.3 mm 0 m/s 754 mmHg 81%
10:00 +29°C° 0.3 mm 0 m/s 754 mmHg 71%
11:00 +33°C° 0.3 mm 1 m/s 754 mmHg 61%
12:00 +32°C° 1.4 mm 1 m/s 753 mmHg 68%
13:00 +31°C° 1.4 mm 1 m/s 753 mmHg 74%
14:00 +30°C° 1.4 mm 1 m/s 752 mmHg 81%
15:00 +28°C° 1.4 mm 0 m/s 752 mmHg 84%
16:00 +27°C° 1.4 mm 0 m/s 752 mmHg 86%
17:00 +27°C° 1.4 mm 0 m/s 752 mmHg 89%
18:00 +26°C° 0.3 mm 0 m/s 752 mmHg 90%
19:00 +24°C° 0.3 mm 0 m/s 753 mmHg 92%
20:00 +23°C° 0.3 mm 0 m/s 753 mmHg 94%
21:00 +23°C° 0.2 mm 0 m/s 753 mmHg 95%
22:00 +23°C° 0.2 mm 0 m/s 754 mmHg 96%
23:00 +22°C° 0.2 mm 0 m/s 754 mmHg 97%

15 Iulie, Miercuri

Timp Temperatura Precipitaţii Vânt Presiune Umiditate
00:00 +22°C° 0 mm 0 m/s 753 mmHg 97%
01:00 +22°C° 0 mm 0 m/s 753 mmHg 97%
02:00 +22°C° 0 mm 0 m/s 752 mmHg 97%
03:00 +21°C° 0 mm 0 m/s 752 mmHg 98%
04:00 +21°C° 0 mm 0 m/s 752 mmHg 98%
05:00 +21°C° 0 mm 0 m/s 752 mmHg 98%
06:00 +22°C° 0 mm 0 m/s 753 mmHg 95%
07:00 +24°C° 0 mm 0 m/s 753 mmHg 91%
08:00 +25°C° 0 mm 0 m/s 754 mmHg 88%
09:00 +27°C° 0.3 mm 0 m/s 753 mmHg 79%
10:00 +31°C° 0.3 mm 1 m/s 753 mmHg 69%
11:00 +33°C° 0.3 mm 1 m/s 753 mmHg 60%
12:00 +33°C° 0.4 mm 1 m/s 753 mmHg 59%
13:00 +33°C° 0.4 mm 1 m/s 752 mmHg 58%
14:00 +33°C° 0.4 mm 1 m/s 751 mmHg 57%
15:00 +32°C° 0.5 mm 1 m/s 751 mmHg 66%
16:00 +30°C° 0.5 mm 1 m/s 751 mmHg 76%
17:00 +29°C° 0.5 mm 1 m/s 751 mmHg 86%
18:00 +28°C° 0.3 mm 1 m/s 751 mmHg 89%
19:00 +26°C° 0.3 mm 1 m/s 752 mmHg 92%
20:00 +25°C° 0.3 mm 1 m/s 752 mmHg 96%
21:00 +25°C° 0.3 mm 1 m/s 753 mmHg 96%
22:00 +25°C° 0.3 mm 1 m/s 753 mmHg 96%
23:00 +24°C° 0.3 mm 1 m/s 753 mmHg 97%

16 Iulie, Joi

Timp Temperatura Precipitaţii Vânt Presiune Umiditate
00:00 +22°C° 0.1 mm 0 m/s 753 mmHg 97%
01:00 +22°C° 0.1 mm 0 m/s 752 mmHg 97%
02:00 +22°C° 0.1 mm 0 m/s 752 mmHg 97%
03:00 +22°C° 0.3 mm 0 m/s 752 mmHg 98%
04:00 +22°C° 0.3 mm 0 m/s 753 mmHg 98%
05:00 +21°C° 0.3 mm 0 m/s 753 mmHg 98%
06:00 +23°C° 0.1 mm 0 m/s 753 mmHg 95%
07:00 +24°C° 0.1 mm 0 m/s 754 mmHg 92%
08:00 +25°C° 0.1 mm 0 m/s 754 mmHg 89%
09:00 +26°C° 1.1 mm 0 m/s 754 mmHg 87%
10:00 +29°C° 1.1 mm 1 m/s 754 mmHg 85%
11:00 +30°C° 1.1 mm 1 m/s 754 mmHg 83%
12:00 +30°C° 2.2 mm 1 m/s 753 mmHg 82%
13:00 +28°C° 2.2 mm 0 m/s 752 mmHg 80%
14:00 +29°C° 2.2 mm 0 m/s 752 mmHg 79%
15:00 +28°C° 0.9 mm 0 m/s 752 mmHg 80%
16:00 +30°C° 0.9 mm 1 m/s 751 mmHg 82%
17:00 +29°C° 0.9 mm 1 m/s 751 mmHg 83%
18:00 +28°C° 0.3 mm 1 m/s 752 mmHg 87%
19:00 +27°C° 0.3 mm 1 m/s 752 mmHg 91%
20:00 +25°C° 0.3 mm 1 m/s 753 mmHg 95%
21:00 +25°C° 0.1 mm 1 m/s 753 mmHg 96%
22:00 +25°C° 0.1 mm 1 m/s 753 mmHg 97%
23:00 +23°C° 0.1 mm 0 m/s 754 mmHg 97%
Arată mai mult